Concord, NC

3:26 AM EDT on March 26, 2017 (GMT -0400)
Concord Regional

Weather History for KJQF - April, 2014

Change the Weather History Date:

Tuesday, April 22, 2014

  Actual Average (KCLT) Record (KCLT)
Temperature  
Mean Temperature 65 °F -  
Max Temperature 80 °F 73 °F 91 °F (1957)
Min Temperature 50 °F 50 °F 33 °F (1978)
Growing Degree Days 15 (Base 50)    
Moisture  
Dew Point 49 °F    
Average Humidity 69    
Maximum Humidity 88    
Minimum Humidity 30    
Precipitation  
Precipitation 0.01 in - - ()
Sea Level Pressure  
Sea Level Pressure 29.86 in    
Wind  
Wind Speed 1 mph (West)    
Max Wind Speed 13 mph    
Max Gust Speed 20 mph    
Visibility 10 miles    
Events      
Averages and records for this station are not official NWS values.
T = Trace of Precipitation, MM = Missing Value Source: NWS Daily Summary

Daily Weather History Graph

Daily Weather History Graph

Search for Another Location

Airport or City:

Trip Planner

Search our weather history database for the weather conditions in past years. The results will help you decide how hot, cold, wet, or windy it might be!

Date:

Astronomy

Apr. 22, 2014 Rise Set
Actual Time 6:41 AM EDT 8:01 PM EDT
Civil Twilight 6:15 AM EDT 8:28 PM EDT
Nautical Twilight 5:43 AM EDT 9:00 PM EDT
Astronomical Twilight 5:10 AM EDT 9:33 PM EDT
Moon 2:14 AM EDT (4/22) 1:15 PM EDT (4/22)
Length of Visible Light 14h 13m
Length of Day
13h 19m
Last Quarter, 46% of the Moon is Illuminated
Apr 22
Last Quarter
Apr 29
New
May 6
First Quarter
May 14
Full
May 21
Last Quarter

Hourly Weather History & Observations

Time (EDT) Temp. Dew Point Humidity Pressure Visibility Wind Dir Wind Speed Gust Speed Precip Events Conditions
12:15 AM 53.6 °F 42.8 °F 67% 29.96 in 10.0 mi Calm Calm - N/A   Clear
12:35 AM 53.6 °F 42.8 °F 67% 29.96 in 10.0 mi Calm Calm - N/A   Clear
12:55 AM 53.6 °F 42.8 °F 67% 29.95 in 10.0 mi Calm Calm - N/A   Clear
1:15 AM 55.4 °F 42.8 °F 63% 29.95 in 10.0 mi Calm Calm - N/A   Clear
1:35 AM 55.4 °F 44.6 °F 67% 29.94 in 10.0 mi Calm Calm - N/A   Clear
1:55 AM 53.6 °F 44.6 °F 72% 29.93 in 10.0 mi Calm Calm - N/A   Clear
2:15 AM 53.6 °F 44.6 °F 72% 29.92 in 10.0 mi Calm Calm - N/A   Clear
2:35 AM 53.6 °F 44.6 °F 72% 29.91 in 10.0 mi Calm Calm - N/A   Clear
2:55 AM 55.4 °F 44.6 °F 67% 29.91 in 10.0 mi Calm Calm - N/A   Clear
3:15 AM 55.4 °F 44.6 °F 67% 29.90 in 10.0 mi Calm Calm - N/A   Clear
3:35 AM 55.4 °F 44.6 °F 67% 29.90 in 10.0 mi Calm Calm - N/A   Clear
3:55 AM 53.6 °F 44.6 °F 72% 29.90 in 10.0 mi Calm Calm - N/A   Clear
4:15 AM 53.6 °F 44.6 °F 72% 29.89 in 10.0 mi Calm Calm - N/A   Clear
4:35 AM 51.8 °F 44.6 °F 76% 29.89 in 10.0 mi Calm Calm - N/A   Clear
4:55 AM 51.8 °F 44.6 °F 76% 29.88 in 10.0 mi Calm Calm - N/A   Clear
5:15 AM 51.8 °F 44.6 °F 76% 29.88 in 10.0 mi Calm Calm - N/A   Clear
5:35 AM 50.0 °F 44.6 °F 82% 29.88 in 10.0 mi Calm Calm - N/A   Clear
5:55 AM 50.0 °F 44.6 °F 82% 29.88 in 10.0 mi Calm Calm - N/A   Clear
6:15 AM 50.0 °F 44.6 °F 82% 29.87 in 10.0 mi Calm Calm - N/A   Clear
6:35 AM 50.0 °F 46.4 °F 87% 29.87 in 10.0 mi Calm Calm - 0.01 in   Clear
6:51 AM 51.8 °F 46.4 °F 82% 29.88 in 10.0 mi Calm Calm - N/A   Clear
7:54 AM 53.6 °F 48.2 °F 82% 29.88 in 10.0 mi Calm Calm - N/A   Clear
8:52 AM 62.6 °F 48.2 °F 59% 29.87 in 10.0 mi Calm Calm - N/A   Clear
9:53 AM 69.8 °F 50.0 °F 49% 29.86 in 10.0 mi Calm Calm - N/A   Mostly Cloudy
10:51 AM 73.4 °F 46.4 °F 38% 29.85 in 10.0 mi WNW 5.8 mph - N/A   Mostly Cloudy
11:53 AM 78.8 °F 46.4 °F 32% 29.84 in 10.0 mi NNW 3.5 mph - N/A   Clear
12:53 PM 78.8 °F 48.2 °F 34% 29.82 in 10.0 mi WNW 4.6 mph - N/A   Scattered Clouds
1:51 PM 80.6 °F 46.4 °F 30% 29.79 in 10.0 mi SW 6.9 mph - N/A   Scattered Clouds
2:55 PM 78.8 °F 48.2 °F 34% 29.78 in 10.0 mi West 9.2 mph - N/A   Overcast
3:55 PM 71.6 °F 53.6 °F 53% 29.79 in 10.0 mi West 12.7 mph 19.6 mph N/A   Mostly Cloudy
5:52 PM 69.8 °F 55.4 °F 60% 29.78 in 10.0 mi WSW 5.8 mph - N/A   Mostly Cloudy
6:52 PM 68.0 °F 55.4 °F 64% 29.77 in 10.0 mi West 4.6 mph - N/A   Scattered Clouds
7:55 PM 66.2 °F 57.2 °F 73% 29.77 in 10.0 mi West 4.6 mph - N/A   Clear
8:52 PM 64.4 °F 57.2 °F 77% 29.77 in 10.0 mi Calm Calm - N/A   Clear
9:52 PM 64.4 °F 57.2 °F 77% 29.79 in 10.0 mi Calm Calm - N/A   Clear
10:15 PM 62.6 °F 55.4 °F 77% 29.80 in 10.0 mi Calm Calm - N/A   Clear
10:35 PM 59.0 °F 55.4 °F 88% 29.81 in 10.0 mi Calm Calm - N/A   Clear
10:52 PM 60.8 °F 57.2 °F 88% 29.81 in 10.0 mi Calm Calm - N/A   Clear
10:55 PM 60.8 °F 55.4 °F 82% 29.81 in 10.0 mi Calm Calm - N/A   Clear
11:15 PM 60.8 °F 55.4 °F 82% 29.81 in 10.0 mi West 3.5 mph - N/A   Clear
11:35 PM 60.8 °F 55.4 °F 82% 29.80 in 10.0 mi Calm Calm - N/A   Clear
11:55 PM 59.0 °F 55.4 °F 88% 29.80 in 10.0 mi Calm Calm - N/A   Clear